Tracking 19832 objects as of 24-Aug-2019
HD Live streaming from Space Station
objects crossing your sky now

FENGYUN 1C DEB

Track FENGYUN 1C DEB now!
10-day predictions


NORAD ID: 30553
Int'l Code: 1999-025AKT
Perigee: 755.7 km
Apogee: 814.3 km
Inclination: 99.1 °
Period: 100.4 minutes
Semi major axis: 7155 km
RCS: 0.027 m2 (small)
Launch date: May 10, 1999
Source: People's Republic of China (PRC)
Launch site: Taiyaun Space Center, China (TSC)

Note: This is SATELLITE DEBRIS
aabbcc
Your satellite tracking list
Your tracking list is empty




NASA's NSSDC Master Catalog

Two Line Element Set (TLE):
1 30553U 99025AKT 19235.90680900 +.00000714 +00000-0 +26976-3 0  9998
2 30553 099.1273 129.4253 0040956 107.1705 253.3968 14.34160064652480
Source of the keplerian elements: AFSPC